This demonstration page uses our WeatherBlox Daily Observations layout. Learn more.

Left ArrowRight Arrow

39.08367, -84.50855

Hourly Observations for January 27, 2018

Temp ( °F °C ) Dew Point ( °F °C ) Humidity (%) Winds ( mph kmh ) Pressure ( in mb ) Visibility ( mi km ) Precip ( " mm )
12:53 am 00:53 Clear 46 7.8 21 -6.1 37 37 S 10 17 30.3 1026 10 16.0934 0 0
1:53 am 01:53 Mostly Clear 48 8.9 22 -5.6 36 36 SSW 10 17 30.29 1026 10 16.0934 0 0
2:53 am 02:53 Mostly Cloudy 48 8.9 23 -5 37 37 SSW 15 24 30.29 1026 10 16.0934 0 0
3:53 am 03:53 Mostly Cloudy 48 8.9 26 -3.3 42 42 S 13 20 30.29 1026 10 16.0934 0 0.0254
4:53 am 04:53 Cloudy 48 8.9 28 -2.2 46 46 SSW 9 15 30.28 1026 10 16.0934 0 0
5:53 am 05:53 Cloudy 48 8.9 30 -1.1 50 50 SSW 9 15 30.29 1026 10 16.0934 0 0.0254
6:53 am 06:53 Cloudy with Light Rain 45 7.2 36 2.2 71 71 SW 5 7 30.3 1026 10 16.0934 0 0.0254
7:53 am 07:53 Cloudy with Light Rain 46 7.8 37 2.8 71 71 S 6 9 30.28 1026 10 16.0934 0 0.0254
8:53 am 08:53 Cloudy 45 7.2 38 3.3 77 77 SSW 3 6 30.27 1025 10 16.0934 0 0.0254
9:53 am 09:53 Cloudy 48 8.9 39 3.9 71 71 SSW 6 9 30.25 1024 10 16.0934 0 0
10:53 am 10:53 Cloudy 52 11.1 42 5.6 69 69 S 10 17 30.25 1024 10 16.0934 0 0
11:53 am 11:53 Cloudy 56 13.3 44 6.7 65 65 SW 10 17 30.24 1024 10 16.0934 0 0
12:53 pm 12:53 Cloudy with Rain 51 10.6 47 8.3 86 86 W 5 7 30.22 1024 5 8.0467 0.03 0.762
1:53 pm 13:53 Cloudy with Rain 51 10.6 49 9.4 92 92 W 6 9 30.21 1023 4 6.43736 0.08 2.032
2:53 pm 14:53 Cloudy with Light Rain 50 10 49 9.4 96 96 WSW 5 7 30.21 1023 4 6.43736 0.08 2.032
3:53 pm 15:53 Cloudy with Rain 50 10 49 9.4 96 96 SSW 7 11 30.22 1023 3 4.82802 0.09 2.286
4:53 pm 16:53 Cloudy with Light Rain 49 9.4 49 9.4 100 100 SW 7 11 30.22 1023 4 6.43736 0.09 2.286
5:53 pm 17:53 Cloudy with Light Rain 49 9.4 49 9.4 100 100 SW 6 9 30.24 1024 6 9.65604 0.03 0.762
6:53 pm 18:53 Cloudy 49 9.4 48 8.9 97 97 WSW 5 7 30.25 1024 10 16.0934 0.01 0.254
7:53 pm 19:53 Cloudy 48 8.9 48 8.9 100 100 Calm 30.27 1025 8 12.87472 0 0
8:53 pm 20:53 Cloudy with Mist and Fog 47 8.3 47 8.3 100 100 Calm 30.27 1025 4 6.43736 0 0
9:53 pm 21:53 Cloudy 49 9.4 46 7.8 90 90 Calm 30.27 1025 10 16.0934 0 0
10:28 pm 22:28 Mostly Clear 47 8.3 45 7.2 93 93 NW 6 9 30.27 1025 10 16.0934 0 0
10:53 pm 22:53 Mostly Clear 45 7.2 44 6.7 97 97 WNW 5 7 30.28 1025 9 14.48406 0 0
11:48 pm 23:48 Clear with Mist and Fog 43 6 43 6 100 100 Calm 30.27 1025 1.75 2.816345 0 0
11:53 pm 23:53 Clear with Mist and Fog 42 5.6 42 5.6 100 100 Calm 30.28 1026 0.75 1.207005 0 0

Powered by AerisWeather